Location: Newark
(47.4333°N, 19.2500°E)
Time: 01:16:23
(UTC+00:00)

X-37B - Pass Details

Date: 14 March 2021
Orbit: 380 x 394 km, 45.0° (Epoch: 07 April)

Event Time Altitude Azimuth Distance (km) Brightness Sun altitude
Rises 17:58:22 0° 239° (WSW) 2,261 5.3 -12.8°
Reaches altitude 10° 18:00:31 10° 230° (SW) 1,411 4.0 -13.2°
Maximum altitude 18:03:27 35° 163° (SSE) 651 1.4 -13.6°
Enters shadow 18:04:29 27° 122° (ESE) 787 1.6 -13.8°
